STARLINK-32614 (62428 NORAD) Tracking and Keplerian Element Data

This shows tracking and keplerian element data for the satellite.

Feedback or suggestion? Click here.




ElementValue
Catalog62428
NameSTARLINK-32614
Epoch Orbit660
Epoch Day34.47565542
Epoch Year2025
RAAN62.069
Inclination43
Eccentricity8.17E-05
Argument of Perigee182.2652
Mean Anonmoly177.8201
Mean Motion15.40701198
Decay Rate4.127E-05
L11 62428U 24249V 25034.47565542 .00004127 00000+0 10599-3 0 9995
L22 62428 43.0000 62.0690 0000817 182.2652 177.8201 15.40701198 6600



Live tracking and technical data element details for STARLINK-32614 (NORAD 62428). STARLINK-32614 can be tracked NOW for your location showing map with azimuth and elevation plus other details from your city location.







IsCatalogInMostPopularTable: catalog: 62428, numindb: 17
Update: records affected: 1



GetName: 62428 STARLINK-32614

Hit Count: updated at: Sun, 18 May 2025 23:17:00 GMT